Location: Pine Mountain State Resort Park
(36.7364°N, 83.7376°W)
Time: 22:26:01
(UTC-05:00)

Envisat - Visible Passes

Search period start: 17 February 2018 00:00
Search period end: 27 February 2018 00:00
Orbit: 764 x 766 km, 98.2° (Epoch: 17 February)

Date Brightness Start Highest point End Pass type
(mag) Time Alt. Az. Time Alt. Az. Time Alt. Az.
17 Feb 3.1 19:41:39 10° SE 19:46:30 49° ENE 19:51:23 10° N visible
17 Feb 5.6 21:22:33 10° SW 21:25:45 17° W 21:28:58 10° NW visible
18 Feb 4.1 19:06:14 10° ESE 19:10:04 22° ENE 19:13:53 10° NNE visible
18 Feb 4.2 20:44:05 10° SSW 20:48:48 39° W 20:53:32 10° NNW visible
19 Feb 2.9 20:06:57 10° SSE 20:12:01 89° E 20:17:07 10° NNW visible
20 Feb 3.4 19:30:47 10° SE 19:35:26 38° ENE 19:40:07 10° N visible
20 Feb 5.2 21:10:41 10° SW 21:14:32 22° W 21:18:23 10° NW visible
21 Feb 4.4 18:55:47 10° ESE 18:59:02 18° ENE 19:02:20 10° NNE visible
21 Feb 3.8 20:32:43 10° S 20:37:37 50° W 20:42:34 10° NNW visible
22 Feb 2.9 19:55:53 10° SSE 20:00:54 70° ENE 20:05:58 10° N visible
22 Feb 5.9 21:38:45 10° WSW 21:40:22 11° W 21:41:59 10° WNW visible
23 Feb 3.7 19:20:01 10° SE 19:24:23 30° ENE 19:28:46 10° N visible
23 Feb 4.9 20:59:02 10° SSW 21:03:19 27° W 21:07:38 10° NW visible
24 Feb 3.3 20:21:27 10° S 20:26:28 65° WSW 20:31:31 10° NNW visible
25 Feb 3.0 19:44:53 10° SSE 19:49:48 54° ENE 19:54:45 10° N visible
25 Feb 5.7 21:26:14 10° SW 21:29:06 15° W 21:32:00 10° WNW visible
26 Feb 4.0 19:09:20 10° ESE 19:13:20 24° ENE 19:17:21 10° NNE visible
26 Feb 4.4 20:47:31 10° SSW 20:52:07 35° W 20:56:46 10° NNW visible
